BSAT-3B

Last updated on Tue Sep 16 2025 00:02:47 GMT+0000 (Coordinated Universal Time)

1 37207U 10056B 25258.60632937 -.00000367 00000+0 00000+0 0 9994 2 37207 0.0587 243.8274 0004406 326.7457 112.3684 1.00270930 49346
UTC large
Height (km)
Speed (km/s)
/
Latitude / Longitude
Inclination (degrees)
Orbital Period (minutes)
Azimuth
Elevation
Range (km)
Doppler Factor

Next 0 passes for location: London (51.5072 / 0.1276)

Sorry there are no passes over London.